Time,TemperatureF,DewpointF,PressureIn,WindDirection,WindDirectionDegrees,WindSpeedMPH,WindSpeedGustMPH,Humidity,HourlyPrecipIn,Conditions,Clouds,dailyrainin,SoftwareType,DateUTC
2013-06-07 00:01:00,59.3,52.8,30.06,SSE,157,0.0,0.0,79,0.00,,,0.00,WeatherCatV1.15B25,2013-06-07 04:01:00,
2013-06-07 00:06:00,59.0,53.2,30.06,SSE,157,0.0,0.0,81,0.00,,,0.00,WeatherCatV1.15B25,2013-06-07 04:06:00,
2013-06-07 00:11:00,58.9,53.7,30.05,SSE,157,0.0,0.0,83,0.00,,,0.00,WeatherCatV1.15B25,2013-06-07 04:11:00,
2013-06-07 00:16:00,58.7,53.5,30.05,SSE,157,0.0,0.0,83,0.00,,,0.00,WeatherCatV1.15B25,2013-06-07 04:16:00,
2013-06-07 00:21:00,58.4,53.6,30.04,SSE,156,0.0,0.0,84,0.00,,,0.00,WeatherCatV1.15B25,2013-06-07 04:21:00,
2013-06-07 00:26:00,58.2,53.7,30.04,SSE,156,0.0,0.0,85,0.00,,,0.00,WeatherCatV1.15B25,2013-06-07 04:26:00,
2013-06-07 00:31:00,58.1,53.9,30.04,SSE,156,0.0,0.0,86,0.00,,,0.00,WeatherCatV1.15B25,2013-06-07 04:31:00,
2013-06-07 00:36:00,57.9,53.7,30.04,SSE,156,0.0,0.0,86,0.00,,,0.00,WeatherCatV1.15B25,2013-06-07 04:36:00,
2013-06-07 00:41:00,57.7,54.2,30.04,SSE,156,0.0,0.0,88,0.00,,,0.00,WeatherCatV1.15B25,2013-06-07 04:41:00,
2013-06-07 00:46:00,57.5,54.0,30.04,SSE,156,0.0,0.0,88,0.00,,,0.00,WeatherCatV1.15B25,2013-06-07 04:46:00,
2013-06-07 00:51:00,57.3,54.1,30.03,SSE,156,0.0,0.0,89,0.00,,,0.00,WeatherCatV1.15B25,2013-06-07 04:51:00,
2013-06-07 00:56:00,57.1,53.9,30.03,SSE,156,0.0,0.0,89,0.00,,,0.00,WeatherCatV1.15B25,2013-06-07 04:56:00,
2013-06-07 01:01:00,57.0,54.1,30.03,SSE,156,0.0,0.0,90,0.00,,,0.00,WeatherCatV1.15B25,2013-06-07 05:01:00,
2013-06-07 01:06:00,56.9,54.0,30.03,SSE,156,0.0,0.0,90,0.00,,,0.00,WeatherCatV1.15B25,2013-06-07 05:06:00,
2013-06-07 01:11:00,56.8,53.9,30.03,SSE,156,0.0,0.0,90,0.00,,,0.00,WeatherCatV1.15B25,2013-06-07 05:11:00,
2013-06-07 01:16:00,56.7,53.8,30.03,SSE,156,0.0,0.0,90,0.00,,,0.00,WeatherCatV1.15B25,2013-06-07 05:16:00,
2013-06-07 01:21:00,56.6,54.0,30.03,SSE,156,0.0,0.0,91,0.00,,,0.00,WeatherCatV1.15B25,2013-06-07 05:21:00,
2013-06-07 01:26:00,56.6,54.0,30.03,SSE,153,0.0,0.0,91,0.00,,,0.00,WeatherCatV1.15B25,2013-06-07 05:26:00,
2013-06-07 01:31:00,56.5,53.9,30.03,SSE,153,0.0,0.0,91,0.00,,,0.00,WeatherCatV1.15B25,2013-06-07 05:31:00,
2013-06-07 01:36:00,56.5,53.9,30.03,SSE,153,0.0,0.0,91,0.00,,,0.00,WeatherCatV1.15B25,2013-06-07 05:36:00,
2013-06-07 01:41:00,56.4,53.8,30.03,SSE,153,0.0,0.0,91,0.00,,,0.00,WeatherCatV1.15B25,2013-06-07 05:41:00,
2013-06-07 01:46:00,56.2,53.6,30.03,SSE,153,0.0,0.0,91,0.00,,,0.00,WeatherCatV1.15B25,2013-06-07 05:46:00,
2013-06-07 01:51:00,56.2,53.9,30.02,SSE,153,0.0,0.0,92,0.00,,,0.00,WeatherCatV1.15B25,2013-06-07 05:51:00,
2013-06-07 01:56:00,56.1,53.8,30.02,SSE,153,0.0,0.0,92,0.00,,,0.00,WeatherCatV1.15B25,2013-06-07 05:56:00,
2013-06-07 02:01:00,56.0,53.7,30.02,SSE,153,0.0,0.0,92,0.00,,,0.00,WeatherCatV1.15B25,2013-06-07 06:01:00,
2013-06-07 02:06:00,56.1,53.8,30.02,SSE,153,0.0,0.0,92,0.00,,,0.00,WeatherCatV1.15B25,2013-06-07 06:06:00,
2013-06-07 02:11:00,56.0,53.7,30.02,SSE,153,0.0,0.0,92,0.00,,,0.00,WeatherCatV1.15B25,2013-06-07 06:11:00,
2013-06-07 02:16:00,56.0,53.7,30.02,SSE,153,0.0,0.0,92,0.00,,,0.00,WeatherCatV1.15B25,2013-06-07 06:16:00,
2013-06-07 02:21:00,56.0,53.7,30.02,SSE,153,0.0,0.0,92,0.00,,,0.00,WeatherCatV1.15B25,2013-06-07 06:21:00,
2013-06-07 02:26:00,55.9,53.9,30.02,SSE,153,0.0,0.0,93,0.00,,,0.00,WeatherCatV1.15B25,2013-06-07 06:26:00,
2013-06-07 02:31:00,55.9,53.9,30.01,SSE,153,0.0,0.0,93,0.00,,,0.00,WeatherCatV1.15B25,2013-06-07 06:31:00,
2013-06-07 02:36:00,55.9,53.9,30.01,SSE,153,0.0,0.0,93,0.00,,,0.00,WeatherCatV1.15B25,2013-06-07 06:36:00,
2013-06-07 02:41:00,55.8,53.8,30.01,SSE,153,0.0,0.0,93,0.00,,,0.00,WeatherCatV1.15B25,2013-06-07 06:41:00,
2013-06-07 02:46:00,55.7,53.7,30.01,SSE,153,0.0,0.0,93,0.00,,,0.00,WeatherCatV1.15B25,2013-06-07 06:46:00,
2013-06-07 02:51:00,55.7,53.7,30.00,East,98,0.0,0.0,93,0.00,,,0.00,WeatherCatV1.15B25,2013-06-07 06:51:00,
2013-06-07 02:56:00,55.7,53.7,30.01,East,98,0.0,0.0,93,0.00,,,0.00,WeatherCatV1.15B25,2013-06-07 06:56:00,
2013-06-07 03:01:00,55.7,53.7,30.01,East,98,0.0,0.0,93,0.00,,,0.00,WeatherCatV1.15B25,2013-06-07 07:01:00,
2013-06-07 03:06:00,55.7,54.0,30.00,East,98,0.0,0.0,94,0.00,,,0.00,WeatherCatV1.15B25,2013-06-07 07:06:00,
2013-06-07 03:11:00,55.7,54.0,30.00,East,98,0.0,0.0,94,0.00,,,0.00,WeatherCatV1.15B25,2013-06-07 07:11:00,
2013-06-07 03:16:00,55.7,54.0,29.99,NE,36,0.0,0.0,94,0.00,,,0.00,WeatherCatV1.15B25,2013-06-07 07:16:00,
2013-06-07 03:21:00,55.7,54.0,29.99,NE,39,0.0,0.0,94,0.00,,,0.00,WeatherCatV1.15B25,2013-06-07 07:21:00,
2013-06-07 03:26:00,55.6,53.9,29.99,NE,54,0.0,1.0,94,0.00,,,0.00,WeatherCatV1.15B25,2013-06-07 07:26:00,
2013-06-07 03:31:00,55.5,53.8,29.98,NE,51,0.0,0.0,94,0.00,,,0.00,WeatherCatV1.15B25,2013-06-07 07:31:00,
2013-06-07 03:36:00,55.4,53.7,29.98,NNE,30,0.0,2.0,94,0.00,,,0.00,WeatherCatV1.15B25,2013-06-07 07:36:00,
2013-06-07 03:41:00,55.4,53.7,29.98,NE,50,0.0,0.0,94,0.00,,,0.00,WeatherCatV1.15B25,2013-06-07 07:41:00,
2013-06-07 03:46:00,55.3,53.3,29.98,NNE,33,0.0,2.0,93,0.00,,,0.00,WeatherCatV1.15B25,2013-06-07 07:46:00,
2013-06-07 03:51:00,55.3,53.3,29.98,East,94,0.0,1.0,93,0.00,,,0.00,WeatherCatV1.15B25,2013-06-07 07:51:00,
2013-06-07 03:56:00,55.3,53.3,29.98,ENE,72,0.0,3.0,93,0.00,,,0.00,WeatherCatV1.15B25,2013-06-07 07:56:00,
2013-06-07 04:01:00,55.2,53.2,29.98,NE,50,0.0,0.0,93,0.00,,,0.00,WeatherCatV1.15B25,2013-06-07 08:01:00,
2013-06-07 04:06:00,55.1,53.1,29.98,NE,36,1.0,1.0,93,0.00,,,0.00,WeatherCatV1.15B25,2013-06-07 08:06:00,
2013-06-07 04:11:00,55.1,53.1,29.98,ENE,68,0.0,0.0,93,0.00,,,0.00,WeatherCatV1.15B25,2013-06-07 08:11:00,
2013-06-07 04:16:00,55.1,53.1,29.98,ENE,68,0.0,0.0,93,0.00,,,0.00,WeatherCatV1.15B25,2013-06-07 08:16:00,
2013-06-07 04:21:00,55.1,53.1,29.98,ENE,68,0.0,0.0,93,0.00,,,0.00,WeatherCatV1.15B25,2013-06-07 08:21:00,
2013-06-07 04:26:00,55.1,53.1,29.98,ENE,68,0.0,0.0,93,0.00,,,0.00,WeatherCatV1.15B25,2013-06-07 08:26:00,
2013-06-07 04:31:00,55.2,53.2,29.98,ENE,68,0.0,0.0,93,0.00,,,0.00,WeatherCatV1.15B25,2013-06-07 08:31:00,
2013-06-07 04:36:00,55.3,53.3,29.99,ENE,69,0.0,1.0,93,0.00,,,0.00,WeatherCatV1.15B25,2013-06-07 08:36:00,
2013-06-07 04:41:00,55.3,53.3,29.98,ENE,69,0.0,0.0,93,0.00,,,0.00,WeatherCatV1.15B25,2013-06-07 08:41:00,
2013-06-07 04:46:00,55.2,53.2,29.98,NE,42,0.0,1.0,93,0.00,,,0.00,WeatherCatV1.15B25,2013-06-07 08:46:00,
2013-06-07 04:51:00,55.2,53.2,29.98,NE,42,0.0,0.0,93,0.00,,,0.00,WeatherCatV1.15B25,2013-06-07 08:51:00,
2013-06-07 04:56:00,55.1,52.8,29.98,NE,37,0.0,0.0,92,0.00,,,0.00,WeatherCatV1.15B25,2013-06-07 08:56:00,
2013-06-07 05:01:00,55.1,52.8,29.98,NE,41,0.0,1.0,92,0.00,,,0.00,WeatherCatV1.15B25,2013-06-07 09:01:00,
2013-06-07 05:06:00,55.0,52.7,29.98,NE,41,0.0,0.0,92,0.00,,,0.00,WeatherCatV1.15B25,2013-06-07 09:06:00,
2013-06-07 05:11:00,55.0,52.7,29.98,NE,41,0.0,0.0,92,0.00,,,0.00,WeatherCatV1.15B25,2013-06-07 09:11:00,
2013-06-07 05:16:00,54.9,52.6,29.98,NE,41,0.0,0.0,92,0.00,,,0.00,WeatherCatV1.15B25,2013-06-07 09:16:00,
2013-06-07 05:21:00,54.8,52.2,29.99,NE,41,0.0,0.0,91,0.00,,,0.00,WeatherCatV1.15B25,2013-06-07 09:21:00,
2013-06-07 05:26:00,54.8,52.2,29.99,NE,41,0.0,0.0,91,0.00,,,0.00,WeatherCatV1.15B25,2013-06-07 09:26:00,
2013-06-07 05:31:00,54.7,52.1,29.99,NE,41,0.0,0.0,91,0.00,,,0.00,WeatherCatV1.15B25,2013-06-07 09:31:00,
2013-06-07 05:36:00,54.8,52.5,29.99,NE,41,0.0,0.0,92,0.00,,,0.00,WeatherCatV1.15B25,2013-06-07 09:36:00,
2013-06-07 05:41:00,54.7,52.1,29.99,NE,41,0.0,0.0,91,0.00,,,0.00,WeatherCatV1.15B25,2013-06-07 09:41:00,
2013-06-07 05:46:00,54.7,52.4,29.99,NE,41,0.0,0.0,92,0.00,,,0.00,WeatherCatV1.15B25,2013-06-07 09:46:00,
2013-06-07 05:51:00,54.6,52.3,29.99,NE,41,0.0,0.0,92,0.00,,,0.00,WeatherCatV1.15B25,2013-06-07 09:51:00,
2013-06-07 05:56:00,54.5,52.2,29.99,NE,41,0.0,0.0,92,0.00,,,0.00,WeatherCatV1.15B25,2013-06-07 09:56:00,
2013-06-07 06:01:00,54.4,52.1,29.99,NE,41,0.0,0.0,92,0.00,,,0.00,WeatherCatV1.15B25,2013-06-07 10:01:00,
2013-06-07 06:06:00,54.4,52.1,30.00,NE,41,0.0,0.0,92,0.00,,,0.00,WeatherCatV1.15B25,2013-06-07 10:06:00,
2013-06-07 06:11:00,54.3,52.0,30.00,NE,41,0.0,0.0,92,0.00,,,0.00,WeatherCatV1.15B25,2013-06-07 10:11:00,
2013-06-07 06:16:00,54.2,51.9,29.99,NE,41,0.0,0.0,92,0.00,,,0.00,WeatherCatV1.15B25,2013-06-07 10:16:00,
2013-06-07 06:21:00,54.0,51.7,29.99,NE,41,0.0,0.0,92,0.00,,,0.00,WeatherCatV1.15B25,2013-06-07 10:21:00,
2013-06-07 06:26:00,53.9,51.6,29.99,NE,41,0.0,0.0,92,0.00,,,0.00,WeatherCatV1.15B25,2013-06-07 10:26:00,
2013-06-07 06:31:00,53.8,51.8,29.98,NE,41,0.0,0.0,93,0.00,,,0.00,WeatherCatV1.15B25,2013-06-07 10:31:00,
2013-06-07 06:36:00,53.8,51.8,29.98,NE,41,0.0,0.0,93,0.00,,,0.00,WeatherCatV1.15B25,2013-06-07 10:36:00,
2013-06-07 06:41:00,53.8,51.8,29.99,NE,41,0.0,0.0,93,0.00,,,0.00,WeatherCatV1.15B25,2013-06-07 10:41:00,
2013-06-07 06:46:00,53.8,51.8,29.99,NE,41,0.0,0.0,93,0.00,,,0.00,WeatherCatV1.15B25,2013-06-07 10:46:00,
2013-06-07 06:51:00,53.8,52.1,29.99,NE,41,0.0,0.0,94,0.00,,,0.00,WeatherCatV1.15B25,2013-06-07 10:51:00,
2013-06-07 06:56:00,53.9,52.2,29.99,NE,41,0.0,0.0,94,0.00,,,0.00,WeatherCatV1.15B25,2013-06-07 10:56:00,
2013-06-07 07:01:00,53.9,52.2,30.00,NE,42,0.0,0.0,94,0.00,,,0.00,WeatherCatV1.15B25,2013-06-07 11:01:00,
2013-06-07 07:06:00,53.9,52.2,30.00,NE,42,0.0,0.0,94,0.00,,,0.00,WeatherCatV1.15B25,2013-06-07 11:06:00,
2013-06-07 07:11:00,53.9,52.2,29.99,NE,42,0.0,0.0,94,0.00,,,0.00,WeatherCatV1.15B25,2013-06-07 11:11:00,
2013-06-07 07:16:00,54.0,52.6,29.99,NE,42,0.0,0.0,95,0.00,,,0.00,WeatherCatV1.15B25,2013-06-07 11:16:00,
2013-06-07 07:21:00,54.1,52.7,29.99,NE,42,0.0,0.0,95,0.00,,,0.00,WeatherCatV1.15B25,2013-06-07 11:21:00,
2013-06-07 07:26:00,54.2,52.8,29.99,NNE,26,0.0,1.0,95,0.00,,,0.00,WeatherCatV1.15B25,2013-06-07 11:26:00,
2013-06-07 07:31:00,54.2,52.8,29.99,NE,51,0.0,0.0,95,0.00,,,0.00,WeatherCatV1.15B25,2013-06-07 11:31:00,
2013-06-07 07:36:00,54.3,52.9,29.99,NE,41,0.0,0.0,95,0.00,,,0.00,WeatherCatV1.15B25,2013-06-07 11:36:00,
2013-06-07 07:41:00,54.3,52.9,29.99,NE,42,1.0,1.0,95,0.00,,,0.00,WeatherCatV1.15B25,2013-06-07 11:41:00,
2013-06-07 07:46:00,54.4,53.0,29.99,NE,40,0.0,1.0,95,0.00,,,0.00,WeatherCatV1.15B25,2013-06-07 11:46:00,
2013-06-07 07:51:00,54.5,53.1,29.99,NE,43,0.0,0.0,95,0.00,,,0.00,WeatherCatV1.15B25,2013-06-07 11:51:00,
2013-06-07 07:56:00,54.5,53.1,29.99,NNE,26,0.0,1.0,95,0.00,,,0.00,WeatherCatV1.15B25,2013-06-07 11:56:00,
2013-06-07 08:01:00,54.5,53.1,29.99,NNE,26,0.0,1.0,95,0.00,,,0.00,WeatherCatV1.15B25,2013-06-07 12:01:00,
2013-06-07 08:06:00,54.5,53.1,29.99,NNE,26,2.0,2.0,95,0.00,,,0.00,WeatherCatV1.15B25,2013-06-07 12:06:00,
2013-06-07 08:11:00,54.5,53.4,29.98,ENE,58,0.0,3.0,96,0.00,,,0.00,WeatherCatV1.15B25,2013-06-07 12:11:00,
2013-06-07 08:16:00,54.6,53.5,29.98,NNE,16,1.0,3.0,96,0.00,,,0.00,WeatherCatV1.15B25,2013-06-07 12:16:00,
2013-06-07 08:22:00,54.6,53.5,29.98,ENE,64,0.0,3.0,96,0.00,,,0.00,WeatherCatV1.15B25,2013-06-07 12:22:00,
2013-06-07 08:27:00,54.6,53.5,29.98,ENE,65,0.0,0.0,96,0.00,,,0.00,WeatherCatV1.15B25,2013-06-07 12:27:00,
2013-06-07 08:32:00,54.7,53.6,29.98,NNE,30,0.0,2.0,96,0.00,,,0.00,WeatherCatV1.15B25,2013-06-07 12:32:00,
2013-06-07 08:37:00,54.8,53.7,29.98,NNE,23,0.0,2.0,96,0.00,,,0.00,WeatherCatV1.15B25,2013-06-07 12:37:00,
2013-06-07 08:42:00,54.9,53.8,29.99,NNE,18,0.0,4.0,96,0.00,,,0.00,WeatherCatV1.15B25,2013-06-07 12:42:00,
2013-06-07 08:47:00,54.9,53.8,29.99,NNE,18,0.0,1.0,96,0.00,,,0.00,WeatherCatV1.15B25,2013-06-07 12:47:00,
2013-06-07 08:52:00,55.0,53.9,29.99,NNE,20,0.0,1.0,96,0.00,,,0.00,WeatherCatV1.15B25,2013-06-07 12:52:00,
2013-06-07 08:57:00,55.1,54.0,29.99,NNE,28,0.0,1.0,96,0.00,,,0.00,WeatherCatV1.15B25,2013-06-07 12:57:00,
2013-06-07 09:02:00,55.2,54.1,29.99,NNE,28,0.0,0.0,96,0.00,,,0.00,WeatherCatV1.15B25,2013-06-07 13:02:00,
2013-06-07 09:07:00,55.3,54.2,29.99,NNE,28,0.0,2.0,96,0.00,,,0.00,WeatherCatV1.15B25,2013-06-07 13:07:00,
2013-06-07 09:12:00,55.3,54.2,29.99,NE,40,0.0,1.0,96,0.00,,,0.00,WeatherCatV1.15B25,2013-06-07 13:12:00,
2013-06-07 09:17:00,55.3,54.2,29.99,North,7,3.0,5.0,96,0.00,,,0.00,WeatherCatV1.15B25,2013-06-07 13:17:00,
2013-06-07 09:22:00,55.3,54.2,29.99,East,79,1.0,1.0,96,0.00,,,0.00,WeatherCatV1.15B25,2013-06-07 13:22:00,
2013-06-07 09:27:00,55.3,54.2,29.99,ENE,58,0.0,1.0,96,0.00,,,0.00,WeatherCatV1.15B25,2013-06-07 13:27:00,
2013-06-07 09:32:00,55.3,54.2,29.99,ENE,64,0.0,2.0,96,0.00,,,0.00,WeatherCatV1.15B25,2013-06-07 13:32:00,
2013-06-07 09:37:00,55.3,54.2,29.99,NNE,31,0.0,3.0,96,0.00,,,0.00,WeatherCatV1.15B25,2013-06-07 13:37:00,
2013-06-07 09:42:00,55.4,54.3,29.99,NNE,25,0.0,3.0,96,0.00,,,0.00,WeatherCatV1.15B25,2013-06-07 13:42:00,
2013-06-07 09:47:00,55.4,54.3,29.99,East,101,0.0,1.0,96,0.00,,,0.00,WeatherCatV1.15B25,2013-06-07 13:47:00,
2013-06-07 09:52:00,55.4,54.3,29.99,NE,36,0.0,0.0,96,0.00,,,0.00,WeatherCatV1.15B25,2013-06-07 13:52:00,
2013-06-07 09:57:00,55.4,54.3,29.99,NNE,24,0.0,2.0,96,0.00,,,0.00,WeatherCatV1.15B25,2013-06-07 13:57:00,
2013-06-07 10:02:00,55.5,54.4,29.98,NE,54,0.0,2.0,96,0.00,,,0.00,WeatherCatV1.15B25,2013-06-07 14:02:00,
2013-06-07 10:07:00,55.5,54.7,29.98,NNE,12,2.0,2.0,97,0.00,,,0.00,WeatherCatV1.15B25,2013-06-07 14:07:00,
2013-06-07 10:12:00,55.6,54.8,29.98,NNE,19,1.0,1.0,97,0.00,,,0.00,WeatherCatV1.15B25,2013-06-07 14:12:00,
2013-06-07 10:17:00,55.7,54.9,29.98,North,7,1.0,3.0,97,0.00,,,0.00,WeatherCatV1.15B25,2013-06-07 14:17:00,
2013-06-07 10:22:00,55.7,54.9,29.98,East,100,0.0,1.0,97,0.00,,,0.00,WeatherCatV1.15B25,2013-06-07 14:22:00,
2013-06-07 10:27:00,55.7,54.9,29.98,NNE,21,0.0,3.0,97,0.00,,,0.00,WeatherCatV1.15B25,2013-06-07 14:27:00,
2013-06-07 10:32:00,55.7,54.9,29.99,NE,38,0.0,5.0,97,0.00,,,0.00,WeatherCatV1.15B25,2013-06-07 14:32:00,
2013-06-07 10:37:00,55.7,54.9,29.99,NE,34,0.0,3.0,97,0.00,,,0.00,WeatherCatV1.15B25,2013-06-07 14:37:00,
2013-06-07 10:42:00,55.7,54.9,29.99,East,97,0.0,0.0,97,0.00,,,0.00,WeatherCatV1.15B25,2013-06-07 14:42:00,
2013-06-07 10:47:00,55.8,55.0,29.99,East,94,0.0,0.0,97,0.00,,,0.00,WeatherCatV1.15B25,2013-06-07 14:47:00,
2013-06-07 10:52:00,56.0,55.2,29.99,NNE,14,0.0,3.0,97,0.00,,,0.00,WeatherCatV1.15B25,2013-06-07 14:52:00,
2013-06-07 10:57:00,56.0,55.2,29.99,NNE,14,0.0,1.0,97,0.00,,,0.00,WeatherCatV1.15B25,2013-06-07 14:57:00,
2013-06-07 11:02:00,56.1,55.3,29.99,NNE,14,0.0,0.0,97,0.00,,,0.00,WeatherCatV1.15B25,2013-06-07 15:02:00,
2013-06-07 11:07:00,56.1,55.3,29.99,NE,44,0.0,2.0,97,0.00,,,0.00,WeatherCatV1.15B25,2013-06-07 15:07:00,
2013-06-07 11:12:00,56.1,55.3,29.99,NE,34,1.0,1.0,97,0.00,,,0.00,WeatherCatV1.15B25,2013-06-07 15:12:00,
2013-06-07 11:17:00,56.2,55.4,29.99,NE,42,0.0,1.0,97,0.00,,,0.00,WeatherCatV1.15B25,2013-06-07 15:17:00,
2013-06-07 11:22:00,56.3,55.5,29.99,NE,36,0.0,3.0,97,0.00,,,0.00,WeatherCatV1.15B25,2013-06-07 15:22:00,
2013-06-07 11:27:00,56.4,55.6,29.98,NNE,32,0.0,1.0,97,0.00,,,0.00,WeatherCatV1.15B25,2013-06-07 15:27:00,
2013-06-07 11:32:00,56.6,55.8,29.99,NE,41,0.0,0.0,97,0.00,,,0.00,WeatherCatV1.15B25,2013-06-07 15:32:00,
2013-06-07 11:37:00,56.9,56.1,29.98,North,7,0.0,3.0,97,0.00,,,0.00,WeatherCatV1.15B25,2013-06-07 15:37:00,
2013-06-07 11:42:00,57.1,56.3,29.98,ESE,115,0.0,3.0,97,0.00,,,0.00,WeatherCatV1.15B25,2013-06-07 15:42:00,
2013-06-07 11:47:00,57.2,56.4,29.98,NNE,33,0.0,0.0,97,0.00,,,0.00,WeatherCatV1.15B25,2013-06-07 15:47:00,
2013-06-07 11:52:00,57.3,56.5,29.98,NE,34,0.0,1.0,97,0.00,,,0.00,WeatherCatV1.15B25,2013-06-07 15:52:00,
2013-06-07 11:57:00,57.5,56.7,29.98,NNE,19,0.0,3.0,97,0.00,,,0.00,WeatherCatV1.15B25,2013-06-07 15:57:00,
2013-06-07 12:02:00,57.6,56.8,29.98,NNE,24,0.0,0.0,97,0.00,,,0.00,WeatherCatV1.15B25,2013-06-07 16:02:00,
2013-06-07 12:07:00,57.8,57.0,29.98,NNE,24,0.0,2.0,97,0.00,,,0.00,WeatherCatV1.15B25,2013-06-07 16:07:00,
2013-06-07 12:12:00,57.8,57.0,29.98,NNE,32,1.0,3.0,97,0.00,,,0.00,WeatherCatV1.15B25,2013-06-07 16:12:00,
2013-06-07 12:17:00,57.8,57.0,29.98,NE,38,0.0,3.0,97,0.00,,,0.00,WeatherCatV1.15B25,2013-06-07 16:17:00,
2013-06-07 12:22:00,57.8,57.0,29.98,East,89,0.0,3.0,97,0.00,,,0.00,WeatherCatV1.15B25,2013-06-07 16:22:00,
2013-06-07 12:27:00,57.7,56.9,29.98,NE,42,1.0,2.0,97,0.00,,,0.00,WeatherCatV1.15B25,2013-06-07 16:27:00,
2013-06-07 12:32:00,57.6,56.5,29.98,NNE,28,1.0,3.0,96,0.00,,,0.00,WeatherCatV1.15B25,2013-06-07 16:32:00,
2013-06-07 12:36:00,57.6,56.5,29.98,ENE,66,1.0,2.0,96,0.00,,,0.00,WeatherCatV1.15B25,2013-06-07 16:36:00,
2013-06-07 12:41:00,57.7,56.6,29.98,North,2,0.0,0.0,96,0.00,,,0.00,WeatherCatV1.15B25,2013-06-07 16:41:00,
2013-06-07 12:46:00,57.7,56.6,29.98,NNE,20,0.0,1.0,96,0.00,,,0.00,WeatherCatV1.15B25,2013-06-07 16:46:00,
2013-06-07 12:51:00,57.8,56.7,29.97,NNE,26,0.0,1.0,96,0.00,,,0.00,WeatherCatV1.15B25,2013-06-07 16:51:00,
2013-06-07 12:56:00,57.7,56.6,29.97,NE,50,1.0,2.0,96,0.00,,,0.00,WeatherCatV1.15B25,2013-06-07 16:56:00,
2013-06-07 13:01:00,57.7,56.6,29.97,NNE,17,0.0,4.0,96,0.00,,,0.00,WeatherCatV1.15B25,2013-06-07 17:01:00,
2013-06-07 13:06:00,57.6,56.5,29.97,NNE,25,0.0,1.0,96,0.00,,,0.00,WeatherCatV1.15B25,2013-06-07 17:06:00,
2013-06-07 13:11:00,57.5,56.4,29.97,NNE,15,0.0,6.0,96,0.00,,,0.00,WeatherCatV1.15B25,2013-06-07 17:11:00,
2013-06-07 13:16:00,57.3,56.2,29.97,NNE,24,2.0,3.0,96,0.00,,,0.00,WeatherCatV1.15B25,2013-06-07 17:16:00,
2013-06-07 13:21:00,57.3,56.2,29.97,NNE,13,1.0,1.0,96,0.00,,,0.00,WeatherCatV1.15B25,2013-06-07 17:21:00,
2013-06-07 13:26:00,57.2,56.1,29.96,East,86,2.0,3.0,96,0.00,,,0.00,WeatherCatV1.15B25,2013-06-07 17:26:00,
2013-06-07 13:31:00,57.0,55.9,29.96,East,100,0.0,2.0,96,0.00,,,0.00,WeatherCatV1.15B25,2013-06-07 17:31:00,
2013-06-07 13:36:00,56.9,55.8,29.96,NNE,18,2.0,2.0,96,0.00,,,0.00,WeatherCatV1.15B25,2013-06-07 17:36:00,
2013-06-07 13:41:00,57.0,55.9,29.96,NNE,21,1.0,5.0,96,0.00,,,0.00,WeatherCatV1.15B25,2013-06-07 17:41:00,
2013-06-07 13:46:00,56.9,55.8,29.96,NNE,15,2.0,4.0,96,0.00,,,0.00,WeatherCatV1.15B25,2013-06-07 17:46:00,
2013-06-07 13:51:00,56.9,55.8,29.96,ENE,68,0.0,5.0,96,0.00,,,0.00,WeatherCatV1.15B25,2013-06-07 17:51:00,
2013-06-07 13:56:00,56.8,55.7,29.96,NNE,14,1.0,3.0,96,0.00,,,0.00,WeatherCatV1.15B25,2013-06-07 17:56:00,
2013-06-07 14:01:00,56.8,55.7,29.96,NNE,12,0.0,2.0,96,0.00,,,0.00,WeatherCatV1.15B25,2013-06-07 18:01:00,
2013-06-07 14:06:00,56.7,55.6,29.96,NE,53,1.0,4.0,96,0.00,,,0.00,WeatherCatV1.15B25,2013-06-07 18:06:00,
2013-06-07 14:11:00,56.5,55.4,29.96,ENE,57,0.0,6.0,96,0.00,,,0.00,WeatherCatV1.15B25,2013-06-07 18:11:00,
2013-06-07 14:16:00,56.3,55.2,29.96,ENE,72,0.0,1.0,96,0.00,,,0.00,WeatherCatV1.15B25,2013-06-07 18:16:00,
2013-06-07 14:21:00,56.3,55.2,29.96,East,96,2.0,4.0,96,0.00,,,0.00,WeatherCatV1.15B25,2013-06-07 18:21:00,
2013-06-07 14:26:00,56.2,55.1,29.96,North,11,0.0,5.0,96,0.00,,,0.00,WeatherCatV1.15B25,2013-06-07 18:26:00,
2013-06-07 14:31:00,56.0,54.9,29.96,ENE,78,0.0,3.0,96,0.00,,,0.00,WeatherCatV1.15B25,2013-06-07 18:31:00,
2013-06-07 14:36:00,56.0,54.9,29.96,NE,47,0.0,2.0,96,0.00,,,0.00,WeatherCatV1.15B25,2013-06-07 18:36:00,
2013-06-07 14:41:00,56.0,54.9,29.96,SSE,161,0.0,2.0,96,0.00,,,0.00,WeatherCatV1.15B25,2013-06-07 18:41:00,
2013-06-07 14:46:00,56.0,54.9,29.96,ESE,122,0.0,0.0,96,0.00,,,0.00,WeatherCatV1.15B25,2013-06-07 18:46:00,
2013-06-07 14:51:00,56.0,55.2,29.96,NE,42,0.0,5.0,97,0.00,,,0.00,WeatherCatV1.15B25,2013-06-07 18:51:00,
2013-06-07 14:56:00,56.1,55.3,29.95,NNE,23,3.0,5.0,97,0.00,,,0.00,WeatherCatV1.15B25,2013-06-07 18:56:00,
2013-06-07 15:01:00,56.1,55.3,29.95,East,82,0.0,5.0,97,0.00,,,0.00,WeatherCatV1.15B25,2013-06-07 19:01:00,
2013-06-07 15:06:00,56.1,55.3,29.95,NNE,15,2.0,3.0,97,0.00,,,0.00,WeatherCatV1.15B25,2013-06-07 19:06:00,
2013-06-07 15:11:00,56.2,55.4,29.95,NE,45,0.0,4.0,97,0.00,,,0.00,WeatherCatV1.15B25,2013-06-07 19:11:00,
2013-06-07 15:16:00,56.1,55.3,29.94,ESE,117,2.0,4.0,97,0.00,,,0.00,WeatherCatV1.15B25,2013-06-07 19:16:00,
2013-06-07 15:21:00,56.1,55.3,29.94,NNE,20,0.0,4.0,97,0.00,,,0.00,WeatherCatV1.15B25,2013-06-07 19:21:00,
2013-06-07 15:26:00,56.0,55.2,29.94,NNE,21,0.0,4.0,97,0.00,,,0.00,WeatherCatV1.15B25,2013-06-07 19:26:00,
2013-06-07 15:31:00,56.0,55.2,29.94,NNE,17,1.0,4.0,97,0.00,,,0.00,WeatherCatV1.15B25,2013-06-07 19:31:00,
2013-06-07 15:36:00,55.9,55.1,29.94,ENE,76,0.0,3.0,97,0.00,,,0.00,WeatherCatV1.15B25,2013-06-07 19:36:00,
2013-06-07 15:41:00,55.9,55.1,29.93,North,7,1.0,4.0,97,0.00,,,0.00,WeatherCatV1.15B25,2013-06-07 19:41:00,
2013-06-07 15:46:00,55.8,55.0,29.93,NNE,26,0.0,3.0,97,0.00,,,0.00,WeatherCatV1.15B25,2013-06-07 19:46:00,
2013-06-07 15:51:00,55.8,55.0,29.93,East,93,3.0,5.0,97,0.00,,,0.00,WeatherCatV1.15B25,2013-06-07 19:51:00,
2013-06-07 15:56:00,55.7,54.9,29.92,East,94,3.0,3.0,97,0.00,,,0.00,WeatherCatV1.15B25,2013-06-07 19:56:00,
2013-06-07 16:01:00,55.6,54.8,29.92,SE,133,0.0,5.0,97,0.00,,,0.00,WeatherCatV1.15B25,2013-06-07 20:01:00,
2013-06-07 16:06:00,55.6,54.8,29.92,East,97,1.0,8.0,97,0.00,,,0.00,WeatherCatV1.15B25,2013-06-07 20:06:00,
2013-06-07 16:11:00,55.6,54.8,29.92,North,7,3.0,4.0,97,0.00,,,0.00,WeatherCatV1.15B25,2013-06-07 20:11:00,
2013-06-07 16:16:00,55.5,54.7,29.91,NNE,24,5.0,7.0,97,0.00,,,0.00,WeatherCatV1.15B25,2013-06-07 20:16:00,
2013-06-07 16:21:00,55.6,54.8,29.91,NE,41,4.0,4.0,97,0.00,,,0.00,WeatherCatV1.15B25,2013-06-07 20:21:00,
2013-06-07 16:26:00,55.5,54.7,29.91,NNE,13,2.0,2.0,97,0.00,,,0.00,WeatherCatV1.15B25,2013-06-07 20:26:00,
2013-06-07 16:31:00,55.5,54.7,29.91,NNE,23,1.0,4.0,97,0.00,,,0.00,WeatherCatV1.15B25,2013-06-07 20:31:00,
2013-06-07 16:36:00,55.4,54.6,29.91,ENE,74,1.0,5.0,97,0.00,,,0.00,WeatherCatV1.15B25,2013-06-07 20:36:00,
2013-06-07 16:41:00,55.4,54.6,29.91,East,94,0.0,4.0,97,0.00,,,0.00,WeatherCatV1.15B25,2013-06-07 20:41:00,
2013-06-07 16:46:00,55.3,54.5,29.91,East,98,2.0,3.0,97,0.00,,,0.00,WeatherCatV1.15B25,2013-06-07 20:46:00,
2013-06-07 16:51:00,55.3,54.5,29.91,East,101,0.0,5.0,97,0.00,,,0.00,WeatherCatV1.15B25,2013-06-07 20:51:00,
2013-06-07 16:56:00,55.3,54.5,29.91,SE,143,0.0,5.0,97,0.00,,,0.00,WeatherCatV1.15B25,2013-06-07 20:56:00,
2013-06-07 17:01:00,55.3,54.5,29.91,ENE,58,2.0,5.0,97,0.00,,,0.00,WeatherCatV1.15B25,2013-06-07 21:01:00,
2013-06-07 17:06:00,55.2,54.4,29.91,NNE,26,4.0,9.0,97,0.00,,,0.00,WeatherCatV1.15B25,2013-06-07 21:06:00,
2013-06-07 17:11:00,55.0,54.2,29.91,NE,34,1.0,3.0,97,0.00,,,0.00,WeatherCatV1.15B25,2013-06-07 21:11:00,
2013-06-07 17:16:00,55.0,54.2,29.91,NNE,20,3.0,9.0,97,0.00,,,0.00,WeatherCatV1.15B25,2013-06-07 21:16:00,
2013-06-07 17:21:00,55.0,54.2,29.91,ESE,117,0.0,3.0,97,0.00,,,0.00,WeatherCatV1.15B25,2013-06-07 21:21:00,
2013-06-07 17:26:00,55.0,54.2,29.90,NNE,23,0.0,3.0,97,0.00,,,0.00,WeatherCatV1.15B25,2013-06-07 21:26:00,
2013-06-07 17:31:00,54.9,54.1,29.90,North,349,1.0,6.0,97,0.00,,,0.00,WeatherCatV1.15B25,2013-06-07 21:31:00,
2013-06-07 17:36:00,54.9,54.1,29.90,North,7,0.0,4.0,97,0.00,,,0.00,WeatherCatV1.15B25,2013-06-07 21:36:00,
2013-06-07 17:41:00,54.9,54.1,29.90,NE,38,0.0,4.0,97,0.00,,,0.00,WeatherCatV1.15B25,2013-06-07 21:41:00,
2013-06-07 17:46:00,54.8,54.0,29.90,NNE,17,1.0,6.0,97,0.00,,,0.00,WeatherCatV1.15B25,2013-06-07 21:46:00,
2013-06-07 17:51:00,54.8,54.0,29.90,East,86,0.0,5.0,97,0.00,,,0.00,WeatherCatV1.15B25,2013-06-07 21:51:00,
2013-06-07 17:56:00,54.7,53.9,29.90,NNE,30,0.0,8.0,97,0.00,,,0.00,WeatherCatV1.15B25,2013-06-07 21:56:00,
2013-06-07 18:01:00,54.7,53.9,29.90,East,81,1.0,3.0,97,0.00,,,0.00,WeatherCatV1.15B25,2013-06-07 22:01:00,
2013-06-07 18:06:00,54.7,53.9,29.90,East,86,3.0,3.0,97,0.00,,,0.00,WeatherCatV1.15B25,2013-06-07 22:06:00,
2013-06-07 18:11:00,54.7,53.9,29.90,NNE,23,0.0,6.0,97,0.00,,,0.00,WeatherCatV1.15B25,2013-06-07 22:11:00,
2013-06-07 18:16:00,54.6,53.8,29.89,North,357,6.0,6.0,97,0.00,,,0.00,WeatherCatV1.15B25,2013-06-07 22:16:00,
2013-06-07 18:21:00,54.5,53.7,29.90,NE,42,0.0,4.0,97,0.00,,,0.00,WeatherCatV1.15B25,2013-06-07 22:21:00,
2013-06-07 18:26:00,54.5,53.7,29.90,ENE,77,1.0,5.0,97,0.00,,,0.00,WeatherCatV1.15B25,2013-06-07 22:26:00,
2013-06-07 18:31:00,54.5,53.7,29.90,NE,53,0.0,3.0,97,0.00,,,0.00,WeatherCatV1.15B25,2013-06-07 22:31:00,
2013-06-07 18:36:00,54.4,53.6,29.90,NE,47,0.0,1.0,97,0.00,,,0.00,WeatherCatV1.15B25,2013-06-07 22:36:00,
2013-06-07 18:41:00,54.4,53.6,29.90,NNE,16,1.0,1.0,97,0.00,,,0.00,WeatherCatV1.15B25,2013-06-07 22:41:00,
2013-06-07 18:46:00,54.4,53.6,29.90,ENE,76,0.0,2.0,97,0.00,,,0.00,WeatherCatV1.15B25,2013-06-07 22:46:00,
2013-06-07 18:51:00,54.4,53.6,29.89,East,100,0.0,3.0,97,0.00,,,0.00,WeatherCatV1.15B25,2013-06-07 22:51:00,
2013-06-07 18:56:00,54.2,53.4,29.89,NNE,16,3.0,5.0,97,0.00,,,0.00,WeatherCatV1.15B25,2013-06-07 22:56:00,
2013-06-07 19:01:00,54.2,53.4,29.89,ENE,70,0.0,1.0,97,0.00,,,0.00,WeatherCatV1.15B25,2013-06-07 23:01:00,
2013-06-07 19:06:00,54.2,53.4,29.89,North,11,0.0,4.0,97,0.00,,,0.00,WeatherCatV1.15B25,2013-06-07 23:06:00,
2013-06-07 19:11:00,54.2,53.4,29.89,North,11,2.0,5.0,97,0.00,,,0.00,WeatherCatV1.15B25,2013-06-07 23:11:00,
2013-06-07 19:16:00,54.1,53.3,29.88,ENE,77,0.0,1.0,97,0.00,,,0.00,WeatherCatV1.15B25,2013-06-07 23:16:00,
2013-06-07 19:21:00,54.1,53.3,29.88,North,11,2.0,4.0,97,0.00,,,0.00,WeatherCatV1.15B25,2013-06-07 23:21:00,
2013-06-07 19:26:00,54.1,53.3,29.88,NNE,12,5.0,5.0,97,0.00,,,0.00,WeatherCatV1.15B25,2013-06-07 23:26:00,
2013-06-07 19:31:00,54.1,53.3,29.87,NNE,15,2.0,4.0,97,0.00,,,0.00,WeatherCatV1.15B25,2013-06-07 23:31:00,
2013-06-07 19:36:00,54.0,53.2,29.86,North,2,2.0,6.0,97,0.00,,,0.00,WeatherCatV1.15B25,2013-06-07 23:36:00,
2013-06-07 19:41:00,54.0,53.2,29.85,NNE,16,2.0,4.0,97,0.00,,,0.00,WeatherCatV1.15B25,2013-06-07 23:41:00,
2013-06-07 19:46:00,53.9,53.1,29.85,NNE,22,4.0,5.0,97,0.00,,,0.00,WeatherCatV1.15B25,2013-06-07 23:46:00,
2013-06-07 19:51:00,53.9,53.1,29.85,NNE,30,0.0,2.0,97,0.00,,,0.00,WeatherCatV1.15B25,2013-06-07 23:51:00,
2013-06-07 19:56:00,53.9,53.1,29.85,ENE,66,0.0,3.0,97,0.00,,,0.00,WeatherCatV1.15B25,2013-06-07 23:56:00,
2013-06-07 20:01:00,53.9,53.1,29.85,NE,34,0.0,3.0,97,0.00,,,0.00,WeatherCatV1.15B25,2013-06-08 00:01:00,
2013-06-07 20:06:00,54.0,53.2,29.84,NNE,24,1.0,5.0,97,0.00,,,0.00,WeatherCatV1.15B25,2013-06-08 00:06:00,
2013-06-07 20:11:00,54.0,53.2,29.84,North,357,2.0,5.0,97,0.00,,,0.00,WeatherCatV1.15B25,2013-06-08 00:11:00,
2013-06-07 20:16:00,53.9,53.1,29.83,NNE,22,0.0,8.0,97,0.00,,,0.00,WeatherCatV1.15B25,2013-06-08 00:16:00,
2013-06-07 20:21:00,54.0,53.2,29.84,NNE,28,1.0,1.0,97,0.00,,,0.00,WeatherCatV1.15B25,2013-06-08 00:21:00,
2013-06-07 20:26:00,54.0,53.2,29.83,North,357,2.0,6.0,97,0.00,,,0.00,WeatherCatV1.15B25,2013-06-08 00:26:00,
2013-06-07 20:31:00,53.9,53.1,29.83,ENE,69,3.0,5.0,97,0.00,,,0.00,WeatherCatV1.15B25,2013-06-08 00:31:00,
2013-06-07 20:36:00,53.9,53.1,29.82,NNE,18,3.0,7.0,97,0.00,,,0.00,WeatherCatV1.15B25,2013-06-08 00:36:00,
2013-06-07 20:41:00,53.9,53.1,29.82,SE,126,3.0,3.0,97,0.00,,,0.00,WeatherCatV1.15B25,2013-06-08 00:41:00,
2013-06-07 20:46:00,53.9,53.1,29.82,NE,39,1.0,4.0,97,0.00,,,0.00,WeatherCatV1.15B25,2013-06-08 00:46:00,
2013-06-07 20:51:00,53.8,53.0,29.82,NE,36,3.0,9.0,97,0.00,,,0.00,WeatherCatV1.15B25,2013-06-08 00:51:00,
2013-06-07 20:56:00,53.8,53.0,29.82,NE,52,0.0,6.0,97,0.00,,,0.00,WeatherCatV1.15B25,2013-06-08 00:56:00,
2013-06-07 21:01:00,53.8,53.0,29.82,South,182,1.0,5.0,97,0.00,,,0.00,WeatherCatV1.15B25,2013-06-08 01:01:00,
2013-06-07 21:06:00,53.8,53.0,29.82,North,2,2.0,5.0,97,0.00,,,0.00,WeatherCatV1.15B25,2013-06-08 01:06:00,
2013-06-07 21:11:00,53.8,53.0,29.83,North,2,1.0,5.0,97,0.00,,,0.00,WeatherCatV1.15B25,2013-06-08 01:11:00,
2013-06-07 21:16:00,53.7,52.9,29.84,NNE,19,4.0,5.0,97,0.00,,,0.00,WeatherCatV1.15B25,2013-06-08 01:16:00,
2013-06-07 21:21:00,53.7,52.9,29.81,NNE,29,2.0,8.0,97,0.00,,,0.00,WeatherCatV1.15B25,2013-06-08 01:21:00,
2013-06-07 21:26:00,53.7,53.1,29.82,NNE,13,0.0,3.0,98,0.00,,,0.00,WeatherCatV1.15B25,2013-06-08 01:26:00,
2013-06-07 21:31:00,53.7,53.1,29.82,North,7,0.0,4.0,98,0.00,,,0.00,WeatherCatV1.15B25,2013-06-08 01:31:00,
2013-06-07 21:36:00,53.7,53.1,29.82,SE,145,1.0,5.0,98,0.00,,,0.00,WeatherCatV1.15B25,2013-06-08 01:36:00,
2013-06-07 21:41:00,53.7,53.1,29.83,NNE,21,0.0,3.0,98,0.00,,,0.00,WeatherCatV1.15B25,2013-06-08 01:41:00,
2013-06-07 21:46:00,53.7,53.1,29.83,ESE,120,3.0,3.0,98,0.00,,,0.00,WeatherCatV1.15B25,2013-06-08 01:46:00,
2013-06-07 21:51:00,53.7,53.1,29.83,ESE,114,1.0,1.0,98,0.00,,,0.00,WeatherCatV1.15B25,2013-06-08 01:51:00,
2013-06-07 21:56:00,53.7,53.1,29.83,North,357,2.0,2.0,98,0.00,,,0.00,WeatherCatV1.15B25,2013-06-08 01:56:00,
2013-06-07 22:01:00,53.7,53.1,29.83,North,11,3.0,3.0,98,0.00,,,0.00,WeatherCatV1.15B25,2013-06-08 02:01:00,
2013-06-07 22:06:00,53.7,53.1,29.82,NNE,18,1.0,3.0,98,0.00,,,0.00,WeatherCatV1.15B25,2013-06-08 02:06:00,
2013-06-07 22:11:00,53.7,53.1,29.82,NNE,21,1.0,6.0,98,0.00,,,0.00,WeatherCatV1.15B25,2013-06-08 02:11:00,
2013-06-07 22:16:00,53.7,53.1,29.82,North,357,0.0,6.0,98,0.00,,,0.00,WeatherCatV1.15B25,2013-06-08 02:16:00,
2013-06-07 22:21:00,53.6,53.0,29.81,WNW,294,0.0,4.0,98,0.00,,,0.00,WeatherCatV1.15B25,2013-06-08 02:21:00,
2013-06-07 22:26:00,53.6,53.0,29.81,NE,38,2.0,4.0,98,0.00,,,0.00,WeatherCatV1.15B25,2013-06-08 02:26:00,
2013-06-07 22:31:00,53.6,53.0,29.80,ENE,76,0.0,3.0,98,0.00,,,0.00,WeatherCatV1.15B25,2013-06-08 02:31:00,
2013-06-07 22:36:00,53.6,53.0,29.80,NNE,17,1.0,5.0,98,0.00,,,0.00,WeatherCatV1.15B25,2013-06-08 02:36:00,
2013-06-07 22:41:00,53.6,53.0,29.79,NNE,19,0.0,3.0,98,0.00,,,0.00,WeatherCatV1.15B25,2013-06-08 02:41:00,
2013-06-07 22:46:00,53.6,53.0,29.79,NE,35,0.0,2.0,98,0.00,,,0.00,WeatherCatV1.15B25,2013-06-08 02:46:00,
2013-06-07 22:51:00,53.5,52.9,29.78,NNE,13,0.0,3.0,98,0.00,,,0.00,WeatherCatV1.15B25,2013-06-08 02:51:00,
2013-06-07 22:56:00,53.6,53.0,29.78,East,100,0.0,3.0,98,0.00,,,0.00,WeatherCatV1.15B25,2013-06-08 02:56:00,
2013-06-07 23:01:00,53.6,53.0,29.78,NE,56,4.0,11.0,98,0.00,,,0.00,WeatherCatV1.15B25,2013-06-08 03:01:00,
2013-06-07 23:06:00,53.5,52.9,29.77,West,264,2.0,9.0,98,0.00,,,0.00,WeatherCatV1.15B25,2013-06-08 03:06:00,
2013-06-07 23:11:00,53.5,52.9,29.77,ENE,77,5.0,7.0,98,0.00,,,0.00,WeatherCatV1.15B25,2013-06-08 03:11:00,
2013-06-07 23:16:00,53.5,52.9,29.77,NE,54,0.0,3.0,98,0.00,,,0.00,WeatherCatV1.15B25,2013-06-08 03:16:00,
2013-06-07 23:21:00,53.5,52.9,29.77,NE,38,2.0,6.0,98,0.00,,,0.00,WeatherCatV1.15B25,2013-06-08 03:21:00,
2013-06-07 23:26:00,53.5,52.9,29.77,North,2,0.0,6.0,98,0.00,,,0.00,WeatherCatV1.15B25,2013-06-08 03:26:00,
2013-06-07 23:31:00,53.6,53.0,29.76,NNE,19,0.0,1.0,98,0.00,,,0.00,WeatherCatV1.15B25,2013-06-08 03:31:00,
2013-06-07 23:36:00,53.6,53.0,29.76,NNE,19,3.0,4.0,98,0.00,,,0.00,WeatherCatV1.15B25,2013-06-08 03:36:00,
2013-06-07 23:41:00,53.6,53.0,29.76,NE,34,3.0,3.0,98,0.00,,,0.00,WeatherCatV1.15B25,2013-06-08 03:41:00,
2013-06-07 23:47:00,53.6,53.0,29.76,North,11,0.0,5.0,98,0.00,,,0.00,WeatherCatV1.15B25,2013-06-08 03:47:00,
2013-06-07 23:52:00,53.7,53.1,29.75,SE,127,1.0,3.0,98,0.00,,,0.00,WeatherCatV1.15B25,2013-06-08 03:52:00,
2013-06-07 23:57:00,53.7,53.1,29.75,NNE,16,0.0,4.0,98,0.00,,,0.00,WeatherCatV1.15B25,2013-06-08 03:57:00,